Terug naar catalogus

COSMOS 1275 DEB

LostPO
NORAD 42157·DEBRIS·🇷🇺 Russia

Gelanceerd Jun 4, 1981 vanaf Plesetsk Cosmodrome

Loading…

Volgende Passages (komende 24 uur)

TLE

VerouderdSource: Space-Track

Epoch: Apr 7, 2023, 10:29 UTC

1 42157U 81053RV  23097.43731309  .00007358  00000-0  24125-2 0  9996
2 42157  83.0822 356.6976 0011199 166.6854 193.4635 14.38258286 39069

Volg COSMOS 1275 DEB in realtime met AllMySat

Download on the App Store